Export;EXP-2024-001 (2024-03-19T08:18:59+01:00);;;StationsCode;NL10133;NL10318;NL10444;NL10644;NL10722;NL10934
Periode;2024-02-01T00:00:00+01:00 - 2024-03-01T00:00:00+01:00;;;BeheerderMeetStation;RIVM;RIVM;RIVM;RIVM;RIVM;RIVM
Bron;https://data.rivm.nl/data/luchtmeetnet;;;StationsNaam;Wijnandsrade-Opfergeltstraat;Philippine-Stelleweg;De Zilk-Vogelaarsdreef;Cabauw-Wielsekade;Eibergen-Lintveldseweg;Kollumerwaard-Hooge Zuidwal
Beschrijving data;https://data.rivm.nl/data/luchtmeetnet/readme.pdf;;;Latitude,Longitude;(50.902281,5.881748);(51.294498,3.749484);(52.296556,4.510817);(51.974489,4.923301);(52.091801,6.605367);(53.330425,6.276815)
Accreditatienummer;https://www.rva.nl/alle-geaccrediteerden/;;;StationsGebied;regionaal;regionaal;regionaal;regionaal;regionaal;regionaal
;;;;StationsType;achtergrond;achtergrond;achtergrond;achtergrond;achtergrond;achtergrond
;;;;Meetprincipe;Ultraviolet fluorescentie (UV-F);Ultraviolet fluorescentie (UV-F);Ultraviolet fluorescentie (UV-F);Ultraviolet fluorescentie (UV-F);Ultraviolet fluorescentie (UV-F);Ultraviolet fluorescentie (UV-F)
;;;;Meetopstelling;Thermo model 43i SO2 analyser;Thermo model 43i SO2 analyser;Thermo model 43i SO2 analyser;Thermo model 43i SO2 analyser;Thermo model 43i SO2 analyser;Thermo model 43i SO2 analyser
;;;;Accreditatienummer;L224;L224;L224;L224;L224;L224
Component;Bep.periode;Eenheid; Begindatumtijd;Einddatumtijd;NL10133;NL10318;NL10444;NL10644;NL10722;NL10934
SO2;uur;�g/m�;2024-02-01T00:00:00+01:00;2024-02-01T01:00:00+01:00;0.11;0.26;0.13;0.13;0.46;0.26
SO2;uur;�g/m�;2024-02-01T01:00:00+01:00;2024-02-01T02:00:00+01:00;0.06;0.17;0.05;0.2;0.4;0.2
SO2;uur;�g/m�;2024-02-01T02:00:00+01:00;2024-02-01T03:00:00+01:00;0.01;0.2;0.04;0.2;0.41;0.19
SO2;uur;�g/m�;2024-02-01T03:00:00+01:00;2024-02-01T04:00:00+01:00;0.01;0.19;0.08;0.06;0.41;0.22
SO2;uur;�g/m�;2024-02-01T04:00:00+01:00;2024-02-01T05:00:00+01:00;0;0.29;0.09;-0.05;0.21;0.18
SO2;uur;�g/m�;2024-02-01T05:00:00+01:00;2024-02-01T06:00:00+01:00;-0.03;0.21;0.08;-0.1;0.21;0.19
SO2;uur;�g/m�;2024-02-01T06:00:00+01:00;2024-02-01T07:00:00+01:00;-0.03;0.22;0.09;-0.09;0.22;0.12
SO2;uur;�g/m�;2024-02-01T07:00:00+01:00;2024-02-01T08:00:00+01:00;-0.04;0.26;0.11;0.01;0.21;0.18
SO2;uur;�g/m�;2024-02-01T08:00:00+01:00;2024-02-01T09:00:00+01:00;-0.07;0.21;0.18;0;0.2;0.21
SO2;uur;�g/m�;2024-02-01T09:00:00+01:00;2024-02-01T10:00:00+01:00;-0.09;0.24;0.16;0.04;0.2;0.23
SO2;uur;�g/m�;2024-02-01T10:00:00+01:00;2024-02-01T11:00:00+01:00;0.03;0.31;0.18;0.13;0.22;0.21
SO2;uur;�g/m�;2024-02-01T11:00:00+01:00;2024-02-01T12:00:00+01:00;0.15;0.33;0.18;0.08;0.29;0.21
SO2;uur;�g/m�;2024-02-01T12:00:00+01:00;2024-02-01T13:00:00+01:00;0.44;0.29;0.25;0.09;0.34;0.2
SO2;uur;�g/m�;2024-02-01T13:00:00+01:00;2024-02-01T14:00:00+01:00;0.6;0.3;0.28;0.09;0.28;0.25
SO2;uur;�g/m�;2024-02-01T14:00:00+01:00;2024-02-01T15:00:00+01:00;0.42;0.29;0.25;0.07;0.23;0.22
SO2;uur;�g/m�;2024-02-01T15:00:00+01:00;2024-02-01T16:00:00+01:00;0.69;0.4;0.23;0.1;0.25;0.24
SO2;uur;�g/m�;2024-02-01T16:00:00+01:00;2024-02-01T17:00:00+01:00;0.4;0.39;0.14;0.08;0.29;0.15
SO2;uur;�g/m�;2024-02-01T17:00:00+01:00;2024-02-01T18:00:00+01:00;0;0.37;0.14;0.15;0.25;0.22
SO2;uur;�g/m�;2024-02-01T18:00:00+01:00;2024-02-01T19:00:00+01:00;0.11;0.27;0.1;0.07;0.23;0.23
SO2;uur;�g/m�;2024-02-01T19:00:00+01:00;2024-02-01T20:00:00+01:00;0.02;0.33;0.12;0.11;0.22;0.25
SO2;uur;�g/m�;2024-02-01T20:00:00+01:00;2024-02-01T21:00:00+01:00;-0.04;0.24;0.12;0.21;0.27;0.23
SO2;uur;�g/m�;2024-02-01T21:00:00+01:00;2024-02-01T22:00:00+01:00;-0.05;0.27;0.13;0.17;0.22;0.24
SO2;uur;�g/m�;2024-02-01T22:00:00+01:00;2024-02-01T23:00:00+01:00;0.1;0.31;0.19;0.04;0.23;0.27
SO2;uur;�g/m�;2024-02-01T23:00:00+01:00;2024-02-02T00:00:00+01:00;0.29;0.52;0.22;0;0.28;0.26
SO2;uur;�g/m�;2024-02-02T00:00:00+01:00;2024-02-02T01:00:00+01:00;0.22;0.4;0.19;0.11;0.38;0.29
SO2;uur;�g/m�;2024-02-02T01:00:00+01:00;2024-02-02T02:00:00+01:00;0.28;0.37;0.14;0.07;0.48;0.27
SO2;uur;�g/m�;2024-02-02T02:00:00+01:00;2024-02-02T03:00:00+01:00;0.38;0.3;0.2;0.49;0.32;0.29
SO2;uur;�g/m�;2024-02-02T03:00:00+01:00;2024-02-02T04:00:00+01:00;0.51;0.29;0.28;0.53;0.36;0.33
SO2;uur;�g/m�;2024-02-02T04:00:00+01:00;2024-02-02T05:00:00+01:00;0.71;0.05;0.08;0.39;0.35;0.15
SO2;uur;�g/m�;2024-02-02T05:00:00+01:00;2024-02-02T06:00:00+01:00;0.61;0;0.1;0.37;0.81;0.1
SO2;uur;�g/m�;2024-02-02T06:00:00+01:00;2024-02-02T07:00:00+01:00;0.58;0.01;0.04;0.36;0.93;0.09
SO2;uur;�g/m�;2024-02-02T07:00:00+01:00;2024-02-02T08:00:00+01:00;0.43;0.04;0.07;0.28;0.77;0.14
SO2;uur;�g/m�;2024-02-02T08:00:00+01:00;2024-02-02T09:00:00+01:00;0.43;0.05;0.03;0.19;0.77;0.14
SO2;uur;�g/m�;2024-02-02T09:00:00+01:00;2024-02-02T10:00:00+01:00;0.6;0.05;0.05;0.08;0.64;0.12
SO2;uur;�g/m�;2024-02-02T10:00:00+01:00;2024-02-02T11:00:00+01:00;0.61;0.03;0.07;0.03;0.48;0.11
SO2;uur;�g/m�;2024-02-02T11:00:00+01:00;2024-02-02T12:00:00+01:00;0.48;0.05;0.04;0.01;0.37;0.06
SO2;uur;�g/m�;2024-02-02T12:00:00+01:00;2024-02-02T13:00:00+01:00;0.39;0.04;0.01;-0.05;0.32;0.08
SO2;uur;�g/m�;2024-02-02T13:00:00+01:00;2024-02-02T14:00:00+01:00;0.31;0.04;-0.07;-0.07;0.28;0.03
SO2;uur;�g/m�;2024-02-02T14:00:00+01:00;2024-02-02T15:00:00+01:00;0.34;0.09;-0.03;-0.05;0.26;0
SO2;uur;�g/m�;2024-02-02T15:00:00+01:00;2024-02-02T16:00:00+01:00;0.32;0.05;0;-0.09;0.24;-0.04
SO2;uur;�g/m�;2024-02-02T16:00:00+01:00;2024-02-02T17:00:00+01:00;0.26;0.02;-0.02;-0.11;0.22;0.01
SO2;uur;�g/m�;2024-02-02T17:00:00+01:00;2024-02-02T18:00:00+01:00;0.21;-0.05;-0.05;-0.09;0.23;-0.02
SO2;uur;�g/m�;2024-02-02T18:00:00+01:00;2024-02-02T19:00:00+01:00;0.2;-0.05;-0.08;-0.11;0.21;-0.02
SO2;uur;�g/m�;2024-02-02T19:00:00+01:00;2024-02-02T20:00:00+01:00;0.15;-0.07;-0.1;-0.12;0.23;-0.01
SO2;uur;�g/m�;2024-02-02T20:00:00+01:00;2024-02-02T21:00:00+01:00;0.17;-0.07;-0.09;-0.03;0.16;-0.02
SO2;uur;�g/m�;2024-02-02T21:00:00+01:00;2024-02-02T22:00:00+01:00;0.15;-0.09;-0.09;-0.13;0.18;0
SO2;uur;�g/m�;2024-02-02T22:00:00+01:00;2024-02-02T23:00:00+01:00;0.14;-0.1;-0.1;-0.04;0.19;0.01
SO2;uur;�g/m�;2024-02-02T23:00:00+01:00;2024-02-03T00:00:00+01:00;0.15;0.07;-0.07;0.14;0.19;0.05
SO2;uur;�g/m�;2024-02-03T00:00:00+01:00;2024-02-03T01:00:00+01:00;0.14;0.19;-0.02;-0.04;0.17;0.04
SO2;uur;�g/m�;2024-02-03T01:00:00+01:00;2024-02-03T02:00:00+01:00;0.13;0.18;-0.05;-0.09;0.15;-0.03
SO2;uur;�g/m�;2024-02-03T02:00:00+01:00;2024-02-03T03:00:00+01:00;0.1;0.37;-0.05;-0.02;0.18;0.02
SO2;uur;�g/m�;2024-02-03T03:00:00+01:00;2024-02-03T04:00:00+01:00;0.12;0.39;-0.04;0.11;0.18;-0.06
SO2;uur;�g/m�;2024-02-03T04:00:00+01:00;2024-02-03T05:00:00+01:00;-0.08;0.95;0.08;0.66;0.22;0.08
SO2;uur;�g/m�;2024-02-03T05:00:00+01:00;2024-02-03T06:00:00+01:00;-0.07;1.02;-0.02;0.61;0.22;0.03
SO2;uur;�g/m�;2024-02-03T06:00:00+01:00;2024-02-03T07:00:00+01:00;-0.06;0.79;-0.01;0.66;0.21;0.07
SO2;uur;�g/m�;2024-02-03T07:00:00+01:00;2024-02-03T08:00:00+01:00;-0.06;0.76;-0.05;0.74;0.22;0.09
SO2;uur;�g/m�;2024-02-03T08:00:00+01:00;2024-02-03T09:00:00+01:00;-0.06;0.81;-0.07;0.96;0.2;0.04
SO2;uur;�g/m�;2024-02-03T09:00:00+01:00;2024-02-03T10:00:00+01:00;-0.06;0.75;-0.07;0.88;0.16;0.05
SO2;uur;�g/m�;2024-02-03T10:00:00+01:00;2024-02-03T11:00:00+01:00;0;0.47;-0.04;0.9;0.26;0.11
SO2;uur;�g/m�;2024-02-03T11:00:00+01:00;2024-02-03T12:00:00+01:00;-0.03;0.34;-0.04;0.76;0.28;0.07
SO2;uur;�g/m�;2024-02-03T12:00:00+01:00;2024-02-03T13:00:00+01:00;-0.03;0.33;-0.01;0.51;0.24;0.09
SO2;uur;�g/m�;2024-02-03T13:00:00+01:00;2024-02-03T14:00:00+01:00;-0.05;0.32;-0.04;0.72;0.21;0.08
SO2;uur;�g/m�;2024-02-03T14:00:00+01:00;2024-02-03T15:00:00+01:00;-0.04;0.3;-0.02;0.87;0.2;0.03
SO2;uur;�g/m�;2024-02-03T15:00:00+01:00;2024-02-03T16:00:00+01:00;-0.05;0.25;-0.05;1.03;0.24;0.07
SO2;uur;�g/m�;2024-02-03T16:00:00+01:00;2024-02-03T17:00:00+01:00;-0.08;0.25;-0.04;0.58;0.2;0.04
SO2;uur;�g/m�;2024-02-03T17:00:00+01:00;2024-02-03T18:00:00+01:00;-0.07;0.5;-0.03;0.58;0.22;0.05
SO2;uur;�g/m�;2024-02-03T18:00:00+01:00;2024-02-03T19:00:00+01:00;-0.09;0.63;-0.02;0.84;0.2;0.05
SO2;uur;�g/m�;2024-02-03T19:00:00+01:00;2024-02-03T20:00:00+01:00;-0.07;0.28;-0.06;0.76;0.21;0.01
SO2;uur;�g/m�;2024-02-03T20:00:00+01:00;2024-02-03T21:00:00+01:00;-0.09;0.22;-0.05;0.55;0.26;0.03
SO2;uur;�g/m�;2024-02-03T21:00:00+01:00;2024-02-03T22:00:00+01:00;-0.1;0.21;-0.06;0.48;0.24;0.04
SO2;uur;�g/m�;2024-02-03T22:00:00+01:00;2024-02-03T23:00:00+01:00;-0.07;0.18;-0.08;0.36;0.27;0.08
SO2;uur;�g/m�;2024-02-03T23:00:00+01:00;2024-02-04T00:00:00+01:00;-0.13;0.17;-0.05;0.41;0.22;0.05
SO2;uur;�g/m�;2024-02-04T00:00:00+01:00;2024-02-04T01:00:00+01:00;-0.1;0.21;-0.05;0.46;0.24;0.08
SO2;uur;�g/m�;2024-02-04T01:00:00+01:00;2024-02-04T02:00:00+01:00;-0.13;0.29;-0.08;0.47;0.23;0.07
SO2;uur;�g/m�;2024-02-04T02:00:00+01:00;2024-02-04T03:00:00+01:00;-0.1;0.23;-0.08;0.59;0.18;0.07
SO2;uur;�g/m�;2024-02-04T03:00:00+01:00;2024-02-04T04:00:00+01:00;-0.08;0.24;-0.09;0.66;0.2;0.06
SO2;uur;�g/m�;2024-02-04T04:00:00+01:00;2024-02-04T05:00:00+01:00;0.01;0.23;0.21;0.15;0.3;0.33
SO2;uur;�g/m�;2024-02-04T05:00:00+01:00;2024-02-04T06:00:00+01:00;0.05;0.44;0.23;0.38;0.29;0.46
SO2;uur;�g/m�;2024-02-04T06:00:00+01:00;2024-02-04T07:00:00+01:00;-0.01;0.39;0.27;0.34;0.3;0.4
SO2;uur;�g/m�;2024-02-04T07:00:00+01:00;2024-02-04T08:00:00+01:00;-0.03;0.3;0.22;0.33;0.32;0.3
SO2;uur;�g/m�;2024-02-04T08:00:00+01:00;2024-02-04T09:00:00+01:00;-0.05;0.56;0.22;0.33;0.31;0.35
SO2;uur;�g/m�;2024-02-04T09:00:00+01:00;2024-02-04T10:00:00+01:00;-0.03;0.62;0.23;0.31;0.32;0.39
SO2;uur;�g/m�;2024-02-04T10:00:00+01:00;2024-02-04T11:00:00+01:00;-0.02;0.61;0.23;0.13;0.31;0.43
SO2;uur;�g/m�;2024-02-04T11:00:00+01:00;2024-02-04T12:00:00+01:00;-0.04;0.73;0.19;0.09;0.3;0.41
SO2;uur;�g/m�;2024-02-04T12:00:00+01:00;2024-02-04T13:00:00+01:00;-0.03;0.68;0.19;0.13;0.33;0.4
SO2;uur;�g/m�;2024-02-04T13:00:00+01:00;2024-02-04T14:00:00+01:00;-0.06;0.5;0.22;0.13;0.3;0.33
SO2;uur;�g/m�;2024-02-04T14:00:00+01:00;2024-02-04T15:00:00+01:00;-0.05;0.41;0.2;0.12;0.29;0.3
SO2;uur;�g/m�;2024-02-04T15:00:00+01:00;2024-02-04T16:00:00+01:00;-0.01;0.31;0.19;0.43;0.34;0.29
SO2;uur;�g/m�;2024-02-04T16:00:00+01:00;2024-02-04T17:00:00+01:00;-0.06;0.27;0.2;0.23;0.33;0.3
SO2;uur;�g/m�;2024-02-04T17:00:00+01:00;2024-02-04T18:00:00+01:00;-0.08;0.3;0.17;0.05;0.34;0.25
SO2;uur;�g/m�;2024-02-04T18:00:00+01:00;2024-02-04T19:00:00+01:00;-0.06;0.3;0.18;0.07;0.31;0.29
SO2;uur;�g/m�;2024-02-04T19:00:00+01:00;2024-02-04T20:00:00+01:00;-0.09;0.33;0.19;0.1;0.29;0.32
SO2;uur;�g/m�;2024-02-04T20:00:00+01:00;2024-02-04T21:00:00+01:00;-0.07;0.54;0.2;0.16;0.32;0.29
SO2;uur;�g/m�;2024-02-04T21:00:00+01:00;2024-02-04T22:00:00+01:00;-0.1;0.67;0.2;0.16;0.29;0.24
SO2;uur;�g/m�;2024-02-04T22:00:00+01:00;2024-02-04T23:00:00+01:00;-0.09;0.96;0.24;0.32;0.34;0.26
SO2;uur;�g/m�;2024-02-04T23:00:00+01:00;2024-02-05T00:00:00+01:00;-0.04;0.88;0.22;0.57;0.34;0.3
SO2;uur;�g/m�;2024-02-05T00:00:00+01:00;2024-02-05T01:00:00+01:00;0.02;0.91;0.28;0.86;0.32;0.35
SO2;uur;�g/m�;2024-02-05T01:00:00+01:00;2024-02-05T02:00:00+01:00;0.05;0.82;0.21;0.66;0.41;0.32
SO2;uur;�g/m�;2024-02-05T02:00:00+01:00;2024-02-05T03:00:00+01:00;0.13;0.76;0.21;0.75;0.38;0.35
SO2;uur;�g/m�;2024-02-05T03:00:00+01:00;2024-02-05T04:00:00+01:00;0.06;0.84;0.22;0.83;0.38;0.31
SO2;uur;�g/m�;2024-02-05T04:00:00+01:00;2024-02-05T05:00:00+01:00;0.13;0.4;0.04;0.89;0.1;0.23
SO2;uur;�g/m�;2024-02-05T05:00:00+01:00;2024-02-05T06:00:00+01:00;0.14;0.46;0.02;0.5;0.01;0.16
SO2;uur;�g/m�;2024-02-05T06:00:00+01:00;2024-02-05T07:00:00+01:00;;;;;;
SO2;uur;�g/m�;2024-02-05T07:00:00+01:00;2024-02-05T08:00:00+01:00;0.33;0.46;0.16;0.62;0.35;0.4
SO2;uur;�g/m�;2024-02-05T08:00:00+01:00;2024-02-05T09:00:00+01:00;0.16;0.25;0.08;0.37;0.13;0.25
SO2;uur;�g/m�;2024-02-05T09:00:00+01:00;2024-02-05T10:00:00+01:00;0.15;0.13;0.02;0.32;0.07;0.22
SO2;uur;�g/m�;2024-02-05T10:00:00+01:00;2024-02-05T11:00:00+01:00;0.12;0.16;0;0.35;0.06;0.21
SO2;uur;�g/m�;2024-02-05T11:00:00+01:00;2024-02-05T12:00:00+01:00;0.13;0.13;-0.02;0.81;0.06;0.23
SO2;uur;�g/m�;2024-02-05T12:00:00+01:00;2024-02-05T13:00:00+01:00;0.12;0.14;0.01;0.62;0.03;0.18
SO2;uur;�g/m�;2024-02-05T13:00:00+01:00;2024-02-05T14:00:00+01:00;0.11;0.09;0.02;0.48;0.04;0.22
SO2;uur;�g/m�;2024-02-05T14:00:00+01:00;2024-02-05T15:00:00+01:00;0.15;0.08;0.01;0.39;0.06;0.17
SO2;uur;�g/m�;2024-02-05T15:00:00+01:00;2024-02-05T16:00:00+01:00;0.12;0.01;0.05;0.42;0.06;0.21
SO2;uur;�g/m�;2024-02-05T16:00:00+01:00;2024-02-05T17:00:00+01:00;0.14;0.01;-0.01;0.39;0.02;0.2
SO2;uur;�g/m�;2024-02-05T17:00:00+01:00;2024-02-05T18:00:00+01:00;0.14;0.03;0;0.43;0.03;0.18
SO2;uur;�g/m�;2024-02-05T18:00:00+01:00;2024-02-05T19:00:00+01:00;0.13;-0.01;-0.02;0.32;0.06;0.14
SO2;uur;�g/m�;2024-02-05T19:00:00+01:00;2024-02-05T20:00:00+01:00;0.14;-0.03;-0.02;0.3;0.02;0.11
SO2;uur;�g/m�;2024-02-05T20:00:00+01:00;2024-02-05T21:00:00+01:00;0.12;-0.02;-0.05;0.33;0.01;0.13
SO2;uur;�g/m�;2024-02-05T21:00:00+01:00;2024-02-05T22:00:00+01:00;0.1;0;-0.02;0.36;0.01;0.13
SO2;uur;�g/m�;2024-02-05T22:00:00+01:00;2024-02-05T23:00:00+01:00;0.12;-0.03;-0.02;0.46;0.02;0.13
SO2;uur;�g/m�;2024-02-05T23:00:00+01:00;2024-02-06T00:00:00+01:00;0.13;-0.04;-0.01;0.53;0.01;0.21
SO2;uur;�g/m�;2024-02-06T00:00:00+01:00;2024-02-06T01:00:00+01:00;0.12;0.02;0.06;0.52;0.04;0.28
SO2;uur;�g/m�;2024-02-06T01:00:00+01:00;2024-02-06T02:00:00+01:00;0.16;-0.01;-0.03;0.6;0.05;0.27
SO2;uur;�g/m�;2024-02-06T02:00:00+01:00;2024-02-06T03:00:00+01:00;0.13;0.02;-0.01;0.58;0.01;0.25
SO2;uur;�g/m�;2024-02-06T03:00:00+01:00;2024-02-06T04:00:00+01:00;0.17;-0.01;-0.03;0.57;0.02;0.24
SO2;uur;�g/m�;2024-02-06T04:00:00+01:00;2024-02-06T05:00:00+01:00;0.09;0.18;-0.15;0.61;0.36;0.27
SO2;uur;�g/m�;2024-02-06T05:00:00+01:00;2024-02-06T06:00:00+01:00;0.12;0.18;-0.14;0.55;0.33;0.31
SO2;uur;�g/m�;2024-02-06T06:00:00+01:00;2024-02-06T07:00:00+01:00;0.12;0.15;-0.15;0.39;0.31;0.23
SO2;uur;�g/m�;2024-02-06T07:00:00+01:00;2024-02-06T08:00:00+01:00;0.15;0.17;-0.17;0.36;0.3;0.23
SO2;uur;�g/m�;2024-02-06T08:00:00+01:00;2024-02-06T09:00:00+01:00;0.09;0.15;-0.15;;0.34;0.22
SO2;uur;�g/m�;2024-02-06T09:00:00+01:00;2024-02-06T10:00:00+01:00;0.11;0.17;-0.17;;0.32;0.16
SO2;uur;�g/m�;2024-02-06T10:00:00+01:00;2024-02-06T11:00:00+01:00;0.12;0.22;-0.19;;0.35;0.23
SO2;uur;�g/m�;2024-02-06T11:00:00+01:00;2024-02-06T12:00:00+01:00;0.12;0.13;-0.12;;0.37;0.18
SO2;uur;�g/m�;2024-02-06T12:00:00+01:00;2024-02-06T13:00:00+01:00;0.15;0.18;-0.18;;0.34;0.2
SO2;uur;�g/m�;2024-02-06T13:00:00+01:00;2024-02-06T14:00:00+01:00;0.09;0.18;-0.13;;0.37;0.16
SO2;uur;�g/m�;2024-02-06T14:00:00+01:00;2024-02-06T15:00:00+01:00;0.13;0.16;-0.14;;0.35;0.14
SO2;uur;�g/m�;2024-02-06T15:00:00+01:00;2024-02-06T16:00:00+01:00;0.11;0.15;-0.15;;0.3;0.13
SO2;uur;�g/m�;2024-02-06T16:00:00+01:00;2024-02-06T17:00:00+01:00;0.11;0.11;-0.16;;0.28;0.17
SO2;uur;�g/m�;2024-02-06T17:00:00+01:00;2024-02-06T18:00:00+01:00;0.09;0.14;-0.18;;0.32;0.2
SO2;uur;�g/m�;2024-02-06T18:00:00+01:00;2024-02-06T19:00:00+01:00;0.07;0.17;-0.18;;0.34;0.2
SO2;uur;�g/m�;2024-02-06T19:00:00+01:00;2024-02-06T20:00:00+01:00;0.1;0.11;-0.19;;0.34;0.17
SO2;uur;�g/m�;2024-02-06T20:00:00+01:00;2024-02-06T21:00:00+01:00;0.08;0.13;-0.2;;0.4;0.05
SO2;uur;�g/m�;2024-02-06T21:00:00+01:00;2024-02-06T22:00:00+01:00;0.1;0.16;-0.22;;0.35;0.05
SO2;uur;�g/m�;2024-02-06T22:00:00+01:00;2024-02-06T23:00:00+01:00;0.08;0.12;-0.23;;0.32;0.08
SO2;uur;�g/m�;2024-02-06T23:00:00+01:00;2024-02-07T00:00:00+01:00;0.1;0.12;-0.18;;0.28;0.07
SO2;uur;�g/m�;2024-02-07T00:00:00+01:00;2024-02-07T01:00:00+01:00;0.07;0.15;-0.13;;0.24;0.09
SO2;uur;�g/m�;2024-02-07T01:00:00+01:00;2024-02-07T02:00:00+01:00;0.04;0.13;-0.18;;0.24;0.05
SO2;uur;�g/m�;2024-02-07T02:00:00+01:00;2024-02-07T03:00:00+01:00;0.06;0.08;-0.19;;0.25;0.07
SO2;uur;�g/m�;2024-02-07T03:00:00+01:00;2024-02-07T04:00:00+01:00;0.08;0.1;-0.21;;0.28;0.11
SO2;uur;�g/m�;2024-02-07T04:00:00+01:00;2024-02-07T05:00:00+01:00;0.02;0.33;0.09;;-0.11;-0.07
SO2;uur;�g/m�;2024-02-07T05:00:00+01:00;2024-02-07T06:00:00+01:00;-0.02;0.25;0.07;;-0.14;-0.06
SO2;uur;�g/m�;2024-02-07T06:00:00+01:00;2024-02-07T07:00:00+01:00;-0.03;0.28;0.09;;-0.18;-0.01
SO2;uur;�g/m�;2024-02-07T07:00:00+01:00;2024-02-07T08:00:00+01:00;-0.04;0.25;0.08;;-0.16;-0.07
SO2;uur;�g/m�;2024-02-07T08:00:00+01:00;2024-02-07T09:00:00+01:00;0.01;0.4;0.14;;-0.12;-0.01
SO2;uur;�g/m�;2024-02-07T09:00:00+01:00;2024-02-07T10:00:00+01:00;-0.02;0.42;0.33;;-0.11;-0.02
SO2;uur;�g/m�;2024-02-07T10:00:00+01:00;2024-02-07T11:00:00+01:00;0.01;0.53;0.19;;-0.12;-0.02
SO2;uur;�g/m�;2024-02-07T11:00:00+01:00;2024-02-07T12:00:00+01:00;0.02;0.66;;;-0.09;0.01
SO2;uur;�g/m�;2024-02-07T12:00:00+01:00;2024-02-07T13:00:00+01:00;0;1.84;;;-0.07;0.01
SO2;uur;�g/m�;2024-02-07T13:00:00+01:00;2024-02-07T14:00:00+01:00;0.03;1.62;;;-0.08;0.01
SO2;uur;�g/m�;2024-02-07T14:00:00+01:00;2024-02-07T15:00:00+01:00;0.02;0.65;0.4;;-0.09;0.01
SO2;uur;�g/m�;2024-02-07T15:00:00+01:00;2024-02-07T16:00:00+01:00;0.33;1.17;0.34;;-0.11;0
SO2;uur;�g/m�;2024-02-07T16:00:00+01:00;2024-02-07T17:00:00+01:00;0.29;1.38;0.16;;-0.15;0.02
SO2;uur;�g/m�;2024-02-07T17:00:00+01:00;2024-02-07T18:00:00+01:00;0.32;1.22;0.16;;-0.13;0.01
SO2;uur;�g/m�;2024-02-07T18:00:00+01:00;2024-02-07T19:00:00+01:00;0.41;0.5;0.06;0.16;-0.06;0.03
SO2;uur;�g/m�;2024-02-07T19:00:00+01:00;2024-02-07T20:00:00+01:00;0.9;0.49;0.06;0.24;0.05;0.07
SO2;uur;�g/m�;2024-02-07T20:00:00+01:00;2024-02-07T21:00:00+01:00;0.76;0.62;0.08;0.12;0.11;0.14
SO2;uur;�g/m�;2024-02-07T21:00:00+01:00;2024-02-07T22:00:00+01:00;0.39;0.52;0.11;0.05;0.05;0.17
SO2;uur;�g/m�;2024-02-07T22:00:00+01:00;2024-02-07T23:00:00+01:00;0.35;0.7;0.07;0.04;0.02;0.21
SO2;uur;�g/m�;2024-02-07T23:00:00+01:00;2024-02-08T00:00:00+01:00;0.28;0.61;0.15;0.04;-0.03;0.17
SO2;uur;�g/m�;2024-02-08T00:00:00+01:00;2024-02-08T01:00:00+01:00;0.2;0.43;0.22;0.04;-0.01;0.18
SO2;uur;�g/m�;2024-02-08T01:00:00+01:00;2024-02-08T02:00:00+01:00;0.1;0.44;0.17;0.02;-0.02;0.15
SO2;uur;�g/m�;2024-02-08T02:00:00+01:00;2024-02-08T03:00:00+01:00;0.09;0.6;0.17;0.03;-0.03;0.13
SO2;uur;�g/m�;2024-02-08T03:00:00+01:00;2024-02-08T04:00:00+01:00;0.14;;0.16;0.04;0;0.11
SO2;uur;�g/m�;2024-02-08T04:00:00+01:00;2024-02-08T05:00:00+01:00;0.4;;-0.13;0.28;0.11;0.14
SO2;uur;�g/m�;2024-02-08T05:00:00+01:00;2024-02-08T06:00:00+01:00;0.39;;-0.01;0.44;0.07;0.17
SO2;uur;�g/m�;2024-02-08T06:00:00+01:00;2024-02-08T07:00:00+01:00;0.42;1.16;0.02;0.28;0.08;0.23
SO2;uur;�g/m�;2024-02-08T07:00:00+01:00;2024-02-08T08:00:00+01:00;0.41;2.17;0.19;0.23;0.12;0.29
SO2;uur;�g/m�;2024-02-08T08:00:00+01:00;2024-02-08T09:00:00+01:00;0.45;1.57;0.12;0.18;0.16;0.45
SO2;uur;�g/m�;2024-02-08T09:00:00+01:00;2024-02-08T10:00:00+01:00;0.58;0.86;-0.07;0.29;0.19;0.37
SO2;uur;�g/m�;2024-02-08T10:00:00+01:00;2024-02-08T11:00:00+01:00;0.84;0.49;-0.16;0.24;0.22;0.42
SO2;uur;�g/m�;2024-02-08T11:00:00+01:00;2024-02-08T12:00:00+01:00;1.01;0.35;-0.16;0.5;0.24;0.43
SO2;uur;�g/m�;2024-02-08T12:00:00+01:00;2024-02-08T13:00:00+01:00;0.62;0.3;-0.19;0.51;0.17;0.37
SO2;uur;�g/m�;2024-02-08T13:00:00+01:00;2024-02-08T14:00:00+01:00;0.64;0.35;-0.21;0.42;0.08;0.26
SO2;uur;�g/m�;2024-02-08T14:00:00+01:00;2024-02-08T15:00:00+01:00;0.62;0.38;-0.2;0.18;0.05;0.14
SO2;uur;�g/m�;2024-02-08T15:00:00+01:00;2024-02-08T16:00:00+01:00;0.59;0.74;-0.19;0.12;0.02;0.08
SO2;uur;�g/m�;2024-02-08T16:00:00+01:00;2024-02-08T17:00:00+01:00;0.59;0.42;-0.26;0.14;0.01;0.11
SO2;uur;�g/m�;2024-02-08T17:00:00+01:00;2024-02-08T18:00:00+01:00;0.53;0.33;-0.29;0.09;0.02;0.15
SO2;uur;�g/m�;2024-02-08T18:00:00+01:00;2024-02-08T19:00:00+01:00;0.53;0.24;-0.22;0.23;0.02;0.14
SO2;uur;�g/m�;2024-02-08T19:00:00+01:00;2024-02-08T20:00:00+01:00;0.47;0.2;-0.23;0.23;0.05;0.12
SO2;uur;�g/m�;2024-02-08T20:00:00+01:00;2024-02-08T21:00:00+01:00;0.47;0.16;-0.25;0.21;0.02;0.14
SO2;uur;�g/m�;2024-02-08T21:00:00+01:00;2024-02-08T22:00:00+01:00;0.41;0.17;-0.26;0.18;-0.01;0.12
SO2;uur;�g/m�;2024-02-08T22:00:00+01:00;2024-02-08T23:00:00+01:00;0.36;0.14;-0.26;0.19;0.02;0.22
SO2;uur;�g/m�;2024-02-08T23:00:00+01:00;2024-02-09T00:00:00+01:00;0.37;0.16;-0.24;0.21;0.02;0.14
SO2;uur;�g/m�;2024-02-09T00:00:00+01:00;2024-02-09T01:00:00+01:00;0.37;0.23;-0.17;0.18;0.01;0.12
SO2;uur;�g/m�;2024-02-09T01:00:00+01:00;2024-02-09T02:00:00+01:00;;0.13;-0.26;0.1;0.05;0.09
SO2;uur;�g/m�;2024-02-09T02:00:00+01:00;2024-02-09T03:00:00+01:00;;0.12;-0.23;0.06;0.11;0.1
SO2;uur;�g/m�;2024-02-09T03:00:00+01:00;2024-02-09T04:00:00+01:00;;0.08;-0.24;0.06;0.2;0.01
SO2;uur;�g/m�;2024-02-09T04:00:00+01:00;2024-02-09T05:00:00+01:00;0.24;-0.23;-0.03;0.51;0.15;0.23
SO2;uur;�g/m�;2024-02-09T05:00:00+01:00;2024-02-09T06:00:00+01:00;0.19;-0.23;0.08;0.48;0.05;0.22
SO2;uur;�g/m�;2024-02-09T06:00:00+01:00;2024-02-09T07:00:00+01:00;0.19;-0.17;0.29;0.48;0;0.22
SO2;uur;�g/m�;2024-02-09T07:00:00+01:00;2024-02-09T08:00:00+01:00;0.22;-0.26;0.24;0.53;0;0.25
SO2;uur;�g/m�;2024-02-09T08:00:00+01:00;2024-02-09T09:00:00+01:00;0.18;-0.23;0.13;0.54;-0.04;0.24
SO2;uur;�g/m�;2024-02-09T09:00:00+01:00;2024-02-09T10:00:00+01:00;0.23;-0.22;0.2;0.53;0;0.3
SO2;uur;�g/m�;2024-02-09T10:00:00+01:00;2024-02-09T11:00:00+01:00;0.22;-0.2;0.18;0.54;-0.01;0.34
SO2;uur;�g/m�;2024-02-09T11:00:00+01:00;2024-02-09T12:00:00+01:00;0.23;-0.17;0.19;0.69;-0.06;0.41
SO2;uur;�g/m�;2024-02-09T12:00:00+01:00;2024-02-09T13:00:00+01:00;0.26;-0.13;0.26;0.61;-0.02;0.42
SO2;uur;�g/m�;2024-02-09T13:00:00+01:00;2024-02-09T14:00:00+01:00;0.27;-0.14;0.34;0.7;-0.05;0.38
SO2;uur;�g/m�;2024-02-09T14:00:00+01:00;2024-02-09T15:00:00+01:00;0.26;-0.11;0.23;0.9;-0.08;0.41
SO2;uur;�g/m�;2024-02-09T15:00:00+01:00;2024-02-09T16:00:00+01:00;0.25;-0.2;0.32;0.67;-0.07;0.37
SO2;uur;�g/m�;2024-02-09T16:00:00+01:00;2024-02-09T17:00:00+01:00;0.23;-0.19;0.22;0.65;-0.02;0.33
SO2;uur;�g/m�;2024-02-09T17:00:00+01:00;2024-02-09T18:00:00+01:00;0.26;-0.14;0.34;0.78;-0.03;0.38
SO2;uur;�g/m�;2024-02-09T18:00:00+01:00;2024-02-09T19:00:00+01:00;0.23;-0.1;1.68;0.61;-0.05;0.33
SO2;uur;�g/m�;2024-02-09T19:00:00+01:00;2024-02-09T20:00:00+01:00;0.24;0.13;0.38;0.58;-0.02;0.3
SO2;uur;�g/m�;2024-02-09T20:00:00+01:00;2024-02-09T21:00:00+01:00;0.23;0.29;0.65;0.73;-0.01;0.33
SO2;uur;�g/m�;2024-02-09T21:00:00+01:00;2024-02-09T22:00:00+01:00;0.25;0.22;0.43;0.62;0.08;0.37
SO2;uur;�g/m�;2024-02-09T22:00:00+01:00;2024-02-09T23:00:00+01:00;0.25;0.08;0.21;0.63;0.29;0.29
SO2;uur;�g/m�;2024-02-09T23:00:00+01:00;2024-02-10T00:00:00+01:00;0.21;0.02;0.12;0.73;1.17;0.33
SO2;uur;�g/m�;2024-02-10T00:00:00+01:00;2024-02-10T01:00:00+01:00;0.26;-0.08;0.2;0.69;1.27;0.32
SO2;uur;�g/m�;2024-02-10T01:00:00+01:00;2024-02-10T02:00:00+01:00;0.22;-0.18;0.17;0.62;1.74;0.32
SO2;uur;�g/m�;2024-02-10T02:00:00+01:00;2024-02-10T03:00:00+01:00;0.21;-0.17;0.15;0.64;0.43;0.36
SO2;uur;�g/m�;2024-02-10T03:00:00+01:00;2024-02-10T04:00:00+01:00;0.2;-0.18;0.19;0.61;0.35;0.39
SO2;uur;�g/m�;2024-02-10T04:00:00+01:00;2024-02-10T05:00:00+01:00;0.06;0.1;0.32;-0.01;0.81;-0.11
SO2;uur;�g/m�;2024-02-10T05:00:00+01:00;2024-02-10T06:00:00+01:00;0.07;0.06;0.3;0.01;0.97;0.02
SO2;uur;�g/m�;2024-02-10T06:00:00+01:00;2024-02-10T07:00:00+01:00;0.06;0.34;0.27;-0.02;0.62;0.06
SO2;uur;�g/m�;2024-02-10T07:00:00+01:00;2024-02-10T08:00:00+01:00;0.05;0.26;0.3;-0.07;0.53;0.02
SO2;uur;�g/m�;2024-02-10T08:00:00+01:00;2024-02-10T09:00:00+01:00;0.05;0.39;0.33;-0.1;0.5;0.13
SO2;uur;�g/m�;2024-02-10T09:00:00+01:00;2024-02-10T10:00:00+01:00;0.07;0.35;0.46;0;0.93;0.37
SO2;uur;�g/m�;2024-02-10T10:00:00+01:00;2024-02-10T11:00:00+01:00;0.08;1;0.59;0.1;4.32;0.49
SO2;uur;�g/m�;2024-02-10T11:00:00+01:00;2024-02-10T12:00:00+01:00;0.1;1.7;0.81;0.22;5.2;0.4
SO2;uur;�g/m�;2024-02-10T12:00:00+01:00;2024-02-10T13:00:00+01:00;0.28;4.79;1.51;0.36;6.01;0.36
SO2;uur;�g/m�;2024-02-10T13:00:00+01:00;2024-02-10T14:00:00+01:00;0.3;1.06;1.6;0.75;4.08;0.46
SO2;uur;�g/m�;2024-02-10T14:00:00+01:00;2024-02-10T15:00:00+01:00;0.65;0.72;2.34;0.62;2.38;0.42
SO2;uur;�g/m�;2024-02-10T15:00:00+01:00;2024-02-10T16:00:00+01:00;0.38;0.49;1.17;0.22;1.36;0.3
SO2;uur;�g/m�;2024-02-10T16:00:00+01:00;2024-02-10T17:00:00+01:00;0.35;0.35;0.9;0.17;1.12;0.21